Date String (YYYY-MM-DD hh:mm:ss) UTC,Instrument flags,absolute air pressure of the measurement (hPa),sample flow rate (lpm),inlet stack bypass flow (lpm),air temperature of the measurement (°C),ambient temperature measured by the external sensor (°C),aerosol sample conditioner tube jacket temperature (°C),OPC LED temperature (°C),internal box temperature (°C),relative humidity of the measurement (%),span deviation,mass concentration of particles derived from Lorenz-Mie calculation of OPC scattering (μg/m³),mass concentration of particles derived from Lorenz-Mie calculation of OPC scattering (μg/m³),mass concentration of particles derived from Lorenz-Mie calculation of OPC scattering (μg/m³)
DateTimeUTC,F1_M11,P_M11,Q1_M11,Q2_M11,T1_M11,T2_M11,T3_M11,T4_M11,T5_M11,U1_M11,ZSPAN_M11,X2_M11,X0_M11,X1_M11
2024-05-28 19:00:00,SystemResetWarning,0834.5,4.99,000.00,030.0,029.5,000.0,038.1,031.8,019.5,0000.0,0003.90,0015.25,0002.93
2024-05-28 19:01:00,SystemResetWarning,0834.5,5.00,000.00,030.1,029.6,000.0,038.2,031.8,019.2,0000.0,0003.85,0015.97,0002.92
2024-05-28 19:02:00,SystemResetWarning,0834.3,5.00,000.00,030.1,029.0,000.0,038.2,031.5,018.4,0000.0,0003.88,0015.81,0002.93
2024-05-28 19:03:00,SystemResetWarning,0834.2,4.99,000.00,029.8,026.9,000.0,038.3,030.6,018.8,0000.0,0003.91,0016.78,0002.93
2024-05-28 19:04:00,SystemResetWarning,0834.2,5.01,000.00,029.5,026.8,000.0,038.3,030.5,018.9,0000.0,0003.93,0018.01,0002.94
2024-05-28 19:05:00,SystemResetWarning,0834.3,5.01,000.00,029.4,027.1,000.0,038.1,030.5,019.9,0000.0,0003.96,0018.36,0002.94
2024-05-28 19:06:00,SystemResetWarning,0834.4,4.98,000.00,029.5,027.5,000.0,038.1,030.8,019.6,0000.0,0004.01,0019.22,0002.95
2024-05-28 19:07:00,SystemResetWarning,0834.4,5.01,000.00,029.5,027.9,000.0,038.0,030.9,019.9,0000.0,0004.03,0018.94,0002.94
2024-05-28 19:08:00,SystemResetWarning,0834.5,5.02,000.00,029.5,028.2,000.0,038.0,031.1,019.0,0000.0,0004.02,0018.94,0002.92
2024-05-28 19:09:00,SystemResetWarning,0834.3,5.00,000.00,029.6,028.4,000.0,038.0,031.2,019.2,0000.0,0004.08,0019.47,0002.92
2024-05-28 19:10:00,SystemResetWarning,0834.7,4.99,000.00,029.6,028.6,000.0,038.0,031.3,019.4,0000.0,0004.12,0018.74,0002.92
2024-05-28 19:11:00,SystemResetWarning,0834.2,5.00,000.00,029.7,028.8,000.0,038.0,031.4,019.0,0000.0,0004.13,0018.32,0002.91
2024-05-28 19:12:00,SystemResetWarning,0834.2,5.00,000.00,029.7,029.0,000.0,038.0,031.4,018.8,0000.0,0004.16,0017.47,0002.91
2024-05-28 19:13:00,SystemResetWarning,0834.2,5.00,000.00,029.8,029.1,000.0,038.0,031.5,018.4,0000.0,0004.13,0017.93,0002.88
2024-05-28 19:14:00,SystemResetWarning,0834.2,4.99,000.00,029.8,029.2,000.0,038.0,031.6,018.3,0000.0,0004.13,0019.41,0002.86
2024-05-28 19:15:00,SystemResetWarning,0834.2,4.99,000.00,029.9,029.3,000.0,038.0,031.6,018.0,0000.0,0004.14,0018.35,0002.86
2024-05-28 19:16:00,SystemResetWarning,0834.1,4.99,000.00,029.9,029.4,000.0,038.1,031.7,017.2,0000.0,0004.17,0017.22,0002.86
2024-05-28 19:17:00,SystemResetWarning,0834.1,5.00,000.00,030.0,029.5,000.0,038.1,031.7,017.7,0000.0,0004.13,0016.30,0002.82
2024-05-28 19:18:00,SystemResetWarning,0834.2,5.00,000.00,030.1,029.6,000.0,038.1,031.8,017.3,0000.0,0004.13,0016.31,0002.80
2024-05-28 19:19:00,SystemResetWarning,0834.1,4.99,000.00,030.1,029.1,000.0,038.2,031.6,017.4,0000.0,0004.11,0016.35,0002.78
2024-05-28 19:20:00,SystemResetWarning,0834.1,5.00,000.00,029.8,027.0,000.0,038.2,030.6,017.2,0000.0,0004.10,0015.94,0002.78
2024-05-28 19:21:00,SystemResetWarning,0834.1,5.01,000.00,029.5,026.8,000.0,038.2,030.4,017.3,0000.0,0004.02,0015.85,0002.78
2024-05-28 19:22:00,SystemResetWarning,0834.0,5.02,000.00,029.4,027.2,000.0,038.1,030.6,018.0,0000.0,0004.00,0016.44,0002.78
2024-05-28 19:23:00,SystemResetWarning,0834.0,4.99,000.00,029.5,027.5,000.0,038.0,030.8,018.2,0000.0,0004.00,0017.63,0002.75
2024-05-28 19:24:00,SystemResetWarning,0834.1,5.00,000.00,029.5,027.9,000.0,038.0,030.9,018.5,0000.0,0004.02,0017.50,0002.75
2024-05-28 19:25:00,SystemResetWarning,0834.1,5.00,000.00,029.5,028.2,000.0,038.0,031.1,017.6,0000.0,0004.00,0016.06,0002.76
2024-05-28 19:26:00,SystemResetWarning,0834.1,5.01,000.00,029.6,028.4,000.0,037.9,031.2,017.8,0000.0,0004.03,0015.85,0002.74
2024-05-28 19:27:00,SystemResetWarning,0834.1,5.01,000.00,029.6,028.6,000.0,037.9,031.3,017.6,0000.0,0004.01,0015.67,0002.74
2024-05-28 19:28:00,SystemResetWarning,0834.1,4.99,000.00,029.7,028.8,000.0,037.9,031.3,017.3,0000.0,0004.01,0015.60,0002.74
2024-05-28 19:29:00,SystemResetWarning,0834.1,5.00,000.00,029.7,029.0,000.0,038.0,031.4,017.5,0000.0,0004.01,0016.50,0002.74
2024-05-28 19:30:00,SystemResetWarning,0834.1,4.99,000.00,029.8,029.1,000.0,038.0,031.5,017.4,0000.0,0003.99,0016.14,0002.73
2024-05-28 19:31:00,SystemResetWarning,0834.0,5.00,000.00,029.8,029.2,000.0,038.0,031.6,017.5,0000.0,0003.93,0016.46,0002.72
2024-05-28 19:32:00,SystemResetWarning,0834.1,5.00,000.00,029.9,029.3,000.0,038.0,031.6,017.3,0000.0,0003.96,0018.16,0002.72
2024-05-28 19:33:00,SystemResetWarning,0834.0,5.01,000.00,030.0,029.4,000.0,038.1,031.7,017.7,0000.0,0003.98,0018.42,0002.71
2024-05-28 19:34:00,SystemResetWarning,0834.0,5.00,000.00,030.0,029.5,000.0,038.1,031.7,018.1,0000.0,0003.96,0019.07,0002.72
2024-05-28 19:35:00,SystemResetWarning,0833.9,4.98,000.00,029.9,027.9,000.0,038.2,031.0,018.1,0000.0,0003.94,0019.57,0002.72
2024-05-28 19:36:00,SystemResetWarning,0833.8,5.01,000.00,029.4,025.6,000.0,038.2,029.8,018.9,0000.0,0003.96,0018.61,0002.73
2024-05-28 19:37:00,SystemResetWarning,0833.8,5.01,000.00,029.1,025.6,000.0,038.1,029.7,019.0,0000.0,0003.99,0019.76,0002.74
2024-05-28 19:38:00,SystemResetWarning,0833.9,4.99,000.00,029.0,026.2,000.0,038.0,030.0,018.6,0000.0,0003.98,0021.25,0002.73
2024-05-28 19:39:00,SystemResetWarning,0833.8,5.00,000.00,029.0,026.7,000.0,037.8,030.2,019.0,0000.0,0003.97,0022.68,0002.75
2024-05-28 19:40:00,SystemResetWarning,0833.9,5.01,000.00,029.0,027.1,000.0,037.7,030.4,019.2,0000.0,0003.98,0021.46,0002.76
2024-05-28 19:41:00,SystemResetWarning,0833.9,5.01,000.00,029.1,027.5,000.0,037.7,030.6,019.1,0000.0,0004.03,0020.91,0002.82
2024-05-28 19:42:00,SystemResetWarning,0833.9,5.00,000.00,029.1,027.8,000.0,037.7,030.7,019.1,0000.0,0004.07,0020.16,0002.86
2024-05-28 19:43:00,SystemResetWarning,0833.9,5.00,000.00,029.2,028.1,000.0,037.7,030.9,018.9,0000.0,0004.06,0018.35,0002.87
2024-05-28 19:44:00,SystemResetWarning,0833.9,5.00,000.00,029.3,028.3,000.0,037.6,031.0,019.1,0000.0,0004.10,0017.75,0002.89
2024-05-28 19:45:00,SystemResetWarning,0833.9,5.00,000.00,029.3,028.5,000.0,037.6,031.1,018.9,0000.0,0004.17,0017.60,0002.92
2024-05-28 19:46:00,SystemResetWarning,0833.9,5.00,000.00,029.4,028.7,000.0,037.7,031.1,019.1,0000.0,0004.20,0017.32,0002.97
2024-05-28 19:47:00,SystemResetWarning,0833.9,4.99,000.00,029.5,028.8,000.0,037.7,031.2,018.5,0000.0,0004.25,0018.65,0003.01
2024-05-28 19:48:00,SystemResetWarning,0833.9,5.00,000.00,029.5,029.0,000.0,037.7,031.3,018.3,0000.0,0004.20,0018.62,0003.08
2024-05-28 19:49:00,SystemResetWarning,0833.8,5.00,000.00,029.6,029.1,000.0,037.7,031.4,018.4,0000.0,0004.25,0019.19,0003.12
2024-05-28 19:50:00,SystemResetWarning,0833.9,5.00,000.00,029.7,029.2,000.0,037.8,031.4,018.7,0000.0,0004.32,0019.16,0003.15
2024-05-28 19:51:00,SystemResetWarning,0833.9,5.00,000.00,029.7,029.3,000.0,037.8,031.5,018.7,0000.0,0004.36,0019.98,0003.17
2024-05-28 19:52:00,SystemResetWarning,0833.9,5.00,000.00,029.8,029.4,000.0,037.9,031.6,018.6,0000.0,0004.34,0020.67,0003.16
2024-05-28 19:53:00,SystemResetWarning,0833.9,5.00,000.00,029.9,029.5,000.0,037.9,031.6,018.6,0000.0,0004.39,0022.01,0003.16
2024-05-28 19:54:00,SystemResetWarning,0833.9,4.99,000.00,029.9,029.3,000.0,038.0,031.6,018.5,0000.0,0004.46,0022.70,0003.16
2024-05-28 19:55:00,SystemResetWarning,0833.8,4.99,000.00,029.7,027.4,000.0,038.0,030.7,018.8,0000.0,0004.48,0023.82,0003.16
2024-05-28 19:56:00,SystemResetWarning,0833.8,5.02,000.00,029.4,026.7,000.0,038.0,030.3,018.9,0000.0,0004.43,0023.29,0003.16
2024-05-28 19:57:00,SystemResetWarning,0833.8,5.00,000.00,029.3,027.0,000.0,038.0,030.4,019.1,0000.0,0004.47,0023.63,0003.15
2024-05-28 19:58:00,SystemResetWarning,0833.8,5.00,000.00,029.3,027.4,000.0,037.9,030.6,019.5,0000.0,0004.47,0023.05,0003.14
2024-05-28 19:59:00,SystemResetWarning,0833.8,5.00,000.00,029.3,027.8,000.0,037.8,030.8,019.5,0000.0,0004.51,0022.59,0003.12
